International Virtual Aviation Organisation

Russian Federation and Kazakhstan MCD

 

Карточка аэропорта URRP

Внимание!
Информация на этой странице в стадии наполнения.
Если вы не увидели какой-то информации, или заметили неточность - пожалуйста сообщите нам!
Спасибо!
Команда RU-STAFF
Название аэропортаПлатов
Название аэропорта (англ.)Platov
Превышение282 ft. (86 m.)
Координаты47°29.634', 39°55.482'
Высота перехода900
Эшелон перехода050
Коды ответчика1000-1017
Зона ОрВДРостов-на-Дону РПИ (URRV)
Данные METARURRP 271600Z 21006MPS 3600 BR SCT002 BKN038 01/01 Q1025 R23/CLRD70 TEMPO 0800 FG BKN001 RMK QBB060 OBST OBSC QFE761/1015
Проноз погоды (TAF)URRP 271358Z 2715/2815 19003G10MPS 6000 BKN003 TEMPO 2715/2809 16003G10MPS 0300 -DZ FG OVC001 BECMG 2809/2810 12003G10MPS BKN011 TEMPO 2809/2812 SCT007
NOTAMshow/hide NOTAM
AWOS   TABLE

Информация о ВПП

ВПП Длина ВПП (м.) Покрытие Курс ВПП Частота ILS
053900Цементобетон46111.5
233900Цементобетон226110.9

Диспетчерские позиции

Позывной Наименование органа УВД Частота
URRP_TWRПлатов-вышка119.7
URRP_R_APPПлатов - Круг121.2
URRP_APPПлатов-подход128.2
URRP_GNDПлатов - руление119.0
URRP_DELПлатов-деливери127.1



Спутниковое изображение